Tracking 17631 objects as of 3-May-2016
HD Live streaming from Space Station
objects crossing your sky now

COSMOS 970 DEB

Track COSMOS 970 DEB now!
10-day predictions


NORAD ID: 12862
Int'l Code: 1977-121AQ
Perigee: 785.4 km
Apogee: 1,016.5 km
Inclination: 66.2 °
Period: 102.9 minutes
Semi major axis: 7271 km
RCS: 0.0129 m2 (small)
Launch date: December 21, 1977
Source: Commonwealth of Independent States (former USSR) (CIS)
Launch site: TYURATAM MISSILE AND SPACE COMPLEX (TTMTR)

Note: This is SATELLITE DEBRIS
Your satellite tracking list
Your tracking list is empty





NASA's NSSDC Master Catalog

Two Line Element Set (TLE):
1 12862U 77121AQ  16122.51316069  .00000729  00000-0  45457-3 0  9996
2 12862  66.2107 241.4081 0158915 243.5289 197.5863 14.04542741846453
Source of the keplerian elements: AFSPC

N2YO: 421